Regional Weather Roundup
Issued by NWS

Home | Current Version | Previous Version | Text Only | Print | Product List | Glossary Off
Versions: 1 2 3 4 5 6 7 8 9 10 11 12 13 14 15 16 17 18 19 20 21 22 23 24 25 26 27 28 29 30 31 32 33 34 35 36 37 38 39 40 41 42 43 44 45 46 47 48 49 50

000
ASUS43 KMPX 280301
RWRMN
WEATHER ROUNDUP FOR MINNESOTA
NATIONAL WEATHER SERVICE TWIN CITIES/CHANHASSEN MN
1000 PM CDT MON JUL 27 2015


NOTE: "FAIR" INDICATES FEW OR NO CLOUDS BELOW 12,000 FEET WITH NO
SIGNIFICANT WEATHER AND/OR OBSTRUCTIONS TO VISIBILITY. N/A MEANS
CURRENT SKY AND/OR WEATHER CONDITIONS ARE NOT AVAILABLE.

MNZ060>063-068>070-280400-
   Twin Cities Metro

CITY           SKY/WX    TMP DP  RH WIND       PRES   REMARKS
TWIN CITIES    PTCLDY    80  71  74 SE10      29.91R
ST PAUL        PTCLDY    79  72  79 SE8       29.91R
CRYSTAL        PTCLDY    81  71  71 SE8       29.89R
BLAINE         CLEAR     81  73  78 SE8       29.91R
LAKEVILLE      PTCLDY    73  72  94 SE5       29.91S
EDEN PRAIRIE   MOCLDY    80  72  76 SE13      29.89R
SOUTH ST PAUL  PTCLDY    79  71  75 SE6       29.91R
LAKE ELMO      FAIR      77  72  83 SE6       29.93R
$$
MNZ001>005-007-008-013>017-022>024-027-028-280400-
   Northwest Minnesota

CITY           SKY/WX    TMP DP  RH WIND       PRES   REMARKS
BEMIDJI        PTCLDY    76  70  81 SE12      29.86R
HALLOCK        CLEAR     75  72  88 E9        29.76S
ROSEAU         CLEAR     75  70  83 SE6       29.82S
WARROAD        CLEAR     79  72  78 SE7       29.84S
THIEF RVR FALL CLEAR     75  70  83 E9        29.81R
CROOKSTON      CLEAR     79  72  78 SE8       29.77S
FOSSTON        CLEAR     73  68  83 CALM      29.83R
DETROIT LAKES  CLEAR     79  70  73 SE16      29.84R
MOORHEAD       CLEAR     79  72  78 SE8       29.78R
PARK RAPIDS    CLEAR     79  70  74 SE9       29.86R
MAHNOMEN       FAIR      77  70  79 SE7       29.81R
$$
MNZ006-009>011-018-025>026-280400-
   North Central Minnesota

CITY           SKY/WX    TMP DP  RH WIND       PRES   REMARKS
BAUDETTE       CLEAR     76  66  71 SE7       29.86R
FLAG ISLAND    CLEAR     81  73  78 S10       29.83S
INTL FALLS     CLEAR     73  66  78 SE5       29.89R
WASKISH        CLEAR     73  68  83 E3        29.87R
BIG FORK       CLEAR     75  66  73 SE5       29.91R
LONGVILLE      CLEAR     75  70  83 SE5       29.89S
GRAND RAPIDS   CLEAR     75  64  69 SE7       29.92S
CRANE LAKE     PTCLDY    68  64  88 SE1       29.93R
ORR            PTCLDY    75  63  64 CALM      29.91R
COOK           CLEAR     75  63  64 SE5       29.94R
WALKER         FAIR      77  70  80 SE6       29.87S
$$
MNZ012-019>021-037-280400-
   Northeast Minnesota

CITY           SKY/WX    TMP DP  RH WIND       PRES   REMARKS
DULUTH         PTCLDY    73  63  70 SE6       29.96R
ELY            CLEAR     73  57  56 SE7       29.96R
HIBBING        CLEAR     70  64  81 SE5       29.94R
EVELETH        FAIR      72  61  68 CALM      29.96R
DULUTH HARBOR  PTCLDY    70  68  94 NE7       29.94R
TWO HARBORS    MOCLDY    73  66  78 NE3       29.94R
SILVER BAY     CLEAR     72  64  78 NE5       29.95S
GRAND MARAIS     N/A     65  61  87 CALM      29.95R
G MARAIS ARPRT CLEAR     68  55  64 CALM      30.02S
$$
MNZ029>031-032-039>041-046>048-054>057-064-280400-
   West Central Minnesota

CITY           SKY/WX    TMP DP  RH WIND       PRES   REMARKS
FERGUS FALLS   CLEAR     79  72  78 SE13G21   29.80R
WHEATON        CLEAR     75  70  83 SE15      29.81R
MORRIS         CLEAR     77  72  83 SE12      29.82R
ALEXANDRIA     CLEAR     76  72  87 SE12      29.87R
ELBOW LAKE     FAIR      77  73  86 SE10G16   29.82R
WADENA         CLEAR     75  70  83 SE8       29.86R
GLENWOOD       CLEAR     75  72  88 SE10      29.87R
APPLETON       CLEAR     79  72  78 SE10      29.81R
BENSON         CLEAR     79  72  78 S6        29.83R
ORTONVILLE     CLEAR     77  70  78 SE10      29.80R
MADISON        CLEAR     75  72  88 SE9       29.81R
WILLMAR        FAIR      79  73  83 SE9       29.87R
$$
MNZ033>034-036-042>043-049>051-058-059-280400-
   Central Minnesota

CITY           SKY/WX    TMP DP  RH WIND       PRES   REMARKS
ST CLOUD       CLEAR     77  72  84 SE6       29.87R
SAUK CENTRE    FAIR      76  72  87 SE9G17    29.87R
PAYNESVILLE    PTCLDY    76  71  86 E10G17    29.87S
AITKIN         CLEAR     77  70  78 SE5       29.89S
PINE RIVER     CLEAR     75  70  83 SE8       29.91S
BRAINERD       CLEAR     76  70  82 SE6       29.89R
STAPLES        CLEAR     75  70  83 SE6       29.87R
LONG PRAIRIE   FAIR      73  70  88 E7        29.88R
LITTLE FALLS   CLEAR     75  68  78 E8        29.88S
LITCHFIELD     CLEAR     79  75  89 SE9       29.87F
BUFFALO        CLEAR     78  70  77 SE6       29.89S
MAPLE LAKE     CLEAR     79  73  83 SE5       29.90R
$$
MNZ037-044-045-052-053-280400-
   East Central Minnesota

CITY           SKY/WX    TMP DP  RH WIND       PRES   REMARKS
PRINCETON      CLEAR     79  72  78 SE8       29.90R
MORA           CLEAR     73  66  78 E3        29.93R
CAMBRIDGE      CLEAR     79  66  65 SE7       29.89S
RUSH CITY      CLEAR     74  69  82 SE3       29.92R
MOOSE LAKE     CLEAR     73  68  83 S3        29.91S
HINCKLEY       FAIR      73  70  88 E6        29.92S
CLOQUET        PTCLDY    73  64  73 E5        29.95S
MCGREGOR       CLEAR     72  68  88 SE6       29.92S
$$
MNZ071>073-080-081-089-090-097-098-280400-
   Southwest Minnesota

CITY           SKY/WX    TMP DP  RH WIND       PRES   REMARKS
MONTEVIDEO     CLEAR     75  72  88 S10       29.85R
GRANITE FALLS  CLEAR     77  71  82 E10       29.85R
CANBY          CLEAR     76  70  81 SE8       29.83R
MARSHALL       CLEAR     77  68  73 SE14G20   29.84R
REDWOOD FALLS  CLEAR     76  69  79 SE12      29.85R
OLIVIA         CLEAR     73  70  88 SE7       29.85S
PIPESTONE      CLEAR     77  72  83 S9G21     29.85R
WINDOM         CLEAR     73  66  78 SE9       29.88R
WORTHINGTON    CLEAR     75  66  73 SE12G18   29.87R
JACKSON        CLEAR     73  68  83 SE10      29.89S
TRACY          CLEAR     77  72  83 SE10      29.85R
SLAYTON        CLEAR     75  73  92 SE5       29.87R
$$
MNZ065>067-074>077-082>085-091>093-280400-
   South Central Minnesota

CITY           SKY/WX    TMP DP  RH WIND       PRES   REMARKS
MANKATO        CLEAR     75  70  83 SE12      29.90R
NEW ULM        CLEAR     75  72  88 SE12      29.87R
ST JAMES       CLEAR     75  70  83 SE8       29.88S
FAIRMONT       CLEAR     73  63  68 SE10      29.89S
GLENCOE        CLEAR     78  74  88 SE8       29.88R
OWATONNA       CLEAR     75  70  83 SE8       29.93R
WASECA         CLEAR     73  70  88 SE7       29.93R
ALBERT LEA     CLEAR     75  73  94 SE8       29.93R
$$
MNZ078>079-086>088-094>096-280400-
   Southeast Minnesota

CITY           SKY/WX    TMP DP  RH WIND       PRES   REMARKS
ROCHESTER      CLEAR     73  70  90 SE7       29.97R
RED WING       CLEAR     81  70  69 SE7       29.92R
STANTON        PTCLDY    78  70  77 SE9       29.91S
DODGE CENTER   PTCLDY    73  70  88 SE6       29.95S
WINONA         CLEAR     73  70  88 CALM      29.95S
AUSTIN         CLEAR     73  72  94 SE6       29.95R
PRESTON        CLEAR     73  68  84 SE3       29.98R
$$
ABBREVIATIONS USED IN REMARKS
   TC - TEMPERATURES IN CELSIUS
  WCI - WIND CHILL INDEX
   HX - HEAT INDEX
  VSB - VISIBILITY
$$



USA.gov is the U.S. government's official web portal to all federal, state and local government web resources and services.